Weather History for KLKR - January, 2012

Change the Weather History Date:

Sunday, January 1, 2012

  Actual Average (KUZA) Record (KUZA)
Temperature  
Mean Temperature 50 °F -  
Max Temperature 68 °F 53 °F 74 °F (1952)
Min Temperature 32 °F 36 °F 18 °F (1977)
Degree Days  
Heating Degree Days 15    
Moisture  
Dew Point 44 °F    
Average Humidity 83    
Maximum Humidity 100    
Minimum Humidity 54    
Precipitation  
Precipitation 0.00 in - - ()
Sea Level Pressure  
Sea Level Pressure 30.07 in    
Wind  
Wind Speed 2 mph (SW)    
Max Wind Speed 15 mph    
Max Gust Speed 24 mph    
Visibility 8 miles    
Events      
Averages and records for this station are not official NWS values.
T = Trace of Precipitation, MM = Missing Value Source: NWS Daily Summary

Daily Weather History Graph

Daily Weather History Graph

Search for Another Location

Airport or City:

Trip Planner

Search our weather history database for the weather conditions in past years. The results will help you decide how hot, cold, wet, or windy it might be!

Date:

Astronomy

Jan. 01, 2012 Rise Set
Actual Time 7:30 AM EST 5:23 PM EST
Civil Twilight 7:02 AM EST 5:51 PM EST
Nautical Twilight 6:31 AM EST 6:22 PM EST
Astronomical Twilight 6:00 AM EST 6:53 PM EST
Moon 12:02 PM EST (1/1) 12:34 AM EST (1/1)
Length of Visible Light 10h 48m
Length of Day
9h 52m
First Quarter, 54% of the Moon is Illuminated
Jan 1
First Quarter
Jan 9
Full
Jan 16
Last Quarter
Jan 23
New
Jan 30
First Quarter

Hourly Weather History & Observations

Time (EST) Temp. Dew Point Humidity Pressure Visibility Wind Dir Wind Speed Gust Speed Precip Events Conditions
12:15 AM 35.6 °F 35.6 °F 100% 30.16 in 10.0 mi Calm Calm - N/A   Clear
12:35 AM 35.6 °F 35.6 °F 100% 30.15 in 10.0 mi Calm Calm - N/A   Clear
12:55 AM 33.8 °F 33.8 °F 100% 30.15 in 10.0 mi Calm Calm - N/A   Clear
1:15 AM 35.6 °F 35.6 °F 100% 30.15 in 7.0 mi Calm Calm - N/A   Clear
1:35 AM 33.8 °F 33.8 °F 100% 30.15 in 10.0 mi Calm Calm - N/A   Clear
1:55 AM 33.8 °F 33.8 °F 100% 30.15 in 5.0 mi Calm Calm - N/A   Clear
2:15 AM 33.8 °F 33.8 °F 100% 30.15 in 7.0 mi Calm Calm - N/A   Clear
2:35 AM 32.0 °F 32.0 °F 100% 30.15 in 7.0 mi Calm Calm - N/A   Clear
2:55 AM 32.0 °F 32.0 °F 100% 30.16 in 5.0 mi Calm Calm - N/A   Clear
3:15 AM 32.0 °F 32.0 °F 100% 30.16 in 4.0 mi Calm Calm - N/A   Clear
3:35 AM 32.0 °F 32.0 °F 100% 30.16 in 3.0 mi Calm Calm - N/A   Clear
3:55 AM 32.0 °F 32.0 °F 100% 30.16 in 3.0 mi Calm Calm - N/A   Clear
4:15 AM 32.0 °F 32.0 °F 100% 30.16 in 3.0 mi Calm Calm - N/A   Clear
4:35 AM 32.0 °F 32.0 °F 100% 30.16 in 3.0 mi Calm Calm - N/A   Clear
4:55 AM 32.0 °F 32.0 °F 100% 30.15 in 3.0 mi Calm Calm - N/A   Clear
5:15 AM 32.0 °F 32.0 °F 100% 30.14 in 2.5 mi Calm Calm - N/A   Clear
5:35 AM 32.0 °F 32.0 °F 100% 30.15 in 3.0 mi Calm Calm - N/A   Clear
5:55 AM 32.0 °F 32.0 °F 100% 30.15 in 2.5 mi Calm Calm - N/A   Clear
6:15 AM 32.0 °F 32.0 °F 100% 30.15 in 3.0 mi Calm Calm - N/A   Clear
6:35 AM 32.0 °F 32.0 °F 100% 30.16 in 4.0 mi Calm Calm - N/A   Clear
6:55 AM 32.0 °F 32.0 °F 100% 30.15 in 4.0 mi Calm Calm - N/A   Clear
7:15 AM 32.0 °F 32.0 °F 100% 30.15 in 5.0 mi Calm Calm - N/A   Clear
7:35 AM 32.0 °F 32.0 °F 100% 30.15 in 4.0 mi Calm Calm - N/A   Clear
7:55 AM 32.0 °F 32.0 °F 100% 30.15 in 3.0 mi Calm Calm - N/A   Clear
8:15 AM 35.6 °F 35.6 °F 100% 30.16 in 2.5 mi Calm Calm - N/A   Clear
8:35 AM 35.6 °F 35.6 °F 100% 30.16 in 5.0 mi Calm Calm - N/A   Clear
8:55 AM 41.0 °F 41.0 °F 100% 30.16 in 10.0 mi Calm Calm - N/A   Clear
9:15 AM 44.6 °F 44.6 °F 100% 30.16 in 10.0 mi Calm Calm - N/A   Clear
9:35 AM 50.0 °F 42.8 °F 76% 30.16 in 10.0 mi Calm Calm - N/A   Clear
9:55 AM 53.6 °F 41.0 °F 62% 30.15 in 10.0 mi Calm Calm - N/A   Clear
10:15 AM 55.4 °F 39.2 °F 54% 30.13 in 10.0 mi South 3.5 mph - N/A   Clear
10:35 AM 57.2 °F 41.0 °F 55% 30.12 in 10.0 mi South 3.5 mph - N/A   Clear
10:55 AM 59.0 °F 42.8 °F 55% 30.11 in 10.0 mi SSW 3.5 mph - N/A   Partly Cloudy
11:15 AM 60.8 °F 44.6 °F 55% 30.10 in 10.0 mi SW 8.1 mph - N/A   Scattered Clouds
11:35 AM 59.0 °F 46.4 °F 63% 30.09 in 10.0 mi SSW 4.6 mph - N/A   Mostly Cloudy
11:55 AM 59.0 °F 48.2 °F 67% 30.07 in 10.0 mi SSW 4.6 mph - N/A   Overcast
12:15 PM 59.0 °F 48.2 °F 67% 30.06 in 10.0 mi Calm Calm - N/A   Overcast
12:55 PM 60.8 °F 50.0 °F 68% 30.02 in 10.0 mi Calm Calm - N/A   Overcast
1:15 PM 62.6 °F 51.8 °F 68% 30.01 in 10.0 mi SSW 4.6 mph - N/A   Overcast
1:35 PM 66.2 °F 53.6 °F 64% 29.99 in 10.0 mi SW 8.1 mph - N/A   Mostly Cloudy
1:55 PM 66.2 °F 55.4 °F 68% 29.98 in 10.0 mi SSW 8.1 mph - N/A   Clear
2:15 PM 66.2 °F 55.4 °F 68% 29.97 in 10.0 mi SSW 8.1 mph - N/A   Mostly Cloudy
2:35 PM 68.0 °F 55.4 °F 64% 29.95 in 10.0 mi SSW 9.2 mph 17.3 mph N/A   Partly Cloudy
2:55 PM 68.0 °F 55.4 °F 64% 29.95 in 10.0 mi SSW 6.9 mph 18.4 mph N/A   Partly Cloudy
3:15 PM 68.0 °F 55.4 °F 64% 29.94 in 10.0 mi SSW 6.9 mph - N/A   Partly Cloudy
3:35 PM 66.2 °F 57.2 °F 73% 29.95 in 10.0 mi SW 5.8 mph - N/A   Mostly Cloudy
3:55 PM 66.2 °F 57.2 °F 73% 29.95 in 10.0 mi SW 5.8 mph - N/A   Mostly Cloudy
4:15 PM 66.2 °F 57.2 °F 73% 29.96 in 10.0 mi Calm Calm - N/A   Mostly Cloudy
4:35 PM 66.2 °F 57.2 °F 73% 29.94 in 10.0 mi Calm Calm - N/A   Mostly Cloudy
4:55 PM 66.2 °F 57.2 °F 73% 29.94 in 10.0 mi SSW 3.5 mph - N/A   Mostly Cloudy
5:15 PM 66.2 °F 57.2 °F 73% 29.95 in 10.0 mi SSW 5.8 mph - N/A   Mostly Cloudy
5:35 PM 66.2 °F 57.2 °F 73% 29.95 in 10.0 mi SSW 4.6 mph - N/A   Mostly Cloudy
5:55 PM 64.4 °F 57.2 °F 77% 29.94 in 10.0 mi SSW 8.1 mph - N/A   Partly Cloudy
6:15 PM 64.4 °F 55.4 °F 73% 29.95 in 10.0 mi SW 10.4 mph 20.7 mph N/A   Partly Cloudy
6:35 PM 64.4 °F 55.4 °F 73% 29.95 in 10.0 mi SW 8.1 mph 19.6 mph N/A   Clear
6:55 PM 64.4 °F 55.4 °F 73% 29.95 in 10.0 mi SW 13.8 mph 24.2 mph N/A   Clear
7:15 PM 64.4 °F 55.4 °F 73% 29.96 in 10.0 mi SW 11.5 mph 18.4 mph N/A   Clear
7:35 PM 62.6 °F 55.4 °F 77% 29.97 in 10.0 mi SW 8.1 mph - N/A   Clear
7:55 PM 62.6 °F 55.4 °F 77% 29.97 in 10.0 mi WSW 12.7 mph 19.6 mph N/A   Clear
8:15 PM 62.6 °F 55.4 °F 77% 29.98 in 10.0 mi SW 11.5 mph 18.4 mph N/A   Clear
8:35 PM 62.6 °F 53.6 °F 72% 29.98 in 10.0 mi SW 10.4 mph 18.4 mph N/A   Clear
8:55 PM 60.8 °F 53.6 °F 77% 29.98 in 10.0 mi WSW 9.2 mph - N/A   Clear
9:15 PM 59.0 °F 55.4 °F 88% 29.99 in 10.0 mi WSW 11.5 mph - N/A   Partly Cloudy
9:35 PM 59.0 °F 50.0 °F 72% 30.01 in 10.0 mi WNW 15.0 mph 20.7 mph N/A   Mostly Cloudy
9:55 PM 57.2 °F 37.4 °F 48% 30.02 in 10.0 mi WNW 13.8 mph 18.4 mph N/A   Partly Cloudy
10:15 PM 57.2 °F 33.8 °F 41% 30.03 in 10.0 mi West 10.4 mph - N/A   Clear
10:35 PM 55.4 °F 32.0 °F 41% 30.03 in 10.0 mi WNW 8.1 mph - N/A   Clear
10:55 PM 53.6 °F 32.0 °F 44% 30.03 in 10.0 mi WNW 9.2 mph - N/A   Clear
11:15 PM 53.6 °F 28.4 °F 38% 30.04 in 10.0 mi WNW 10.4 mph - N/A   Clear
11:35 PM 51.8 °F 28.4 °F 41% 30.04 in 10.0 mi WNW 9.2 mph - N/A   Clear
11:55 PM 51.8 °F 26.6 °F 38% 30.05 in 10.0 mi NW 9.2 mph - N/A   Clear